Regional Weather Roundup
Issued by NWS

Home | Current Version | Previous Version | Graphics & Text | Print | Product List | Glossary On
Versions: 1 2 3 4 5 6 7 8 9 10 11 12 13 14 15 16 17 18 19 20 21 22 23 24 25 26 27 28 29 30 31 32 33 34 35 36 37 38 39 40 41 42 43 44 45 46 47 48 49 50
000
ASUS43 KLSX 301559
RWRMO

WEATHER SUMMARY FOR MISSOURI
NATIONAL WEATHER SERVICE SPRINGFIELD MO
1100 AM CDT TUE SEP 30 2014

NOTE: "FAIR" INDICATES FEW OR NO CLOUDS BELOW 12,000 FEET WITH NO
       SIGNIFICANT WEATHER AND/OR OBSTRUCTIONS TO VISIBILITY.
       CURRENT SKY AND/OR WEATHER CONDITIONS ARE NOT AVAILABLE FOR
       CHILLICOTHE AND FARMINGTON.

MOZ001>031-035>038-043-044-053-054-301700-
...NORTHERN AND WESTERN MISSOURI...

CITY           SKY/WX    TMP DP  RH WIND       PRES   REMARKS
KANSAS CTY INT PTSUNNY   76  62  62 SW10      29.92F
KANSAS C DTWN  MOSUNNY   80  61  52 S8        29.91S
LEE`S SUMMIT   MOSUNNY  N/A N/A N/A MISG      29.94S
ST JOSEPH      MOSUNNY   79  60  52 S8        29.90F
CHILLICOTHE      N/A     75  61  61 E3        29.94F
KIRKSVILLE     CLOUDY    64  61  90 E8        29.98S FOG

$$
MOZ066>068-077>081-088>096-101>105-301700-
...SOUTHWEST MISSOURI...

CITY           SKY/WX    TMP DP  RH WIND       PRES   REMARKS
SPRINGFIELD    SUNNY     76  61  59 S9        29.97S
JOPLIN         SUNNY     79  61  53 S9        29.95F

$$
MOZ032>034-039>042-045>050-055>058-069>072-301700-
...CENTRAL MISSOURI...

CITY           SKY/WX    TMP DP  RH WIND       PRES   REMARKS
COLUMBIA       SUNNY     76  62  62 S5        29.96S
JEFFERSON CITY SUNNY     76  60  57 VRB3      29.95S
ROLLA          SUNNY     79  58  48 S10       29.96S
SEDALIA        SUNNY     80  60  50 S6        29.95S
OSAGE BEACH    SUNNY     75  61  60 CALM      29.96S

$$
MOZ051-052-059>065-301700-
...EAST CENTRAL MISSOURI...

CITY           SKY/WX    TMP DP  RH WIND       PRES   REMARKS
ST LOUIS INTL  MOSUNNY   78  59  51 CALM      29.97S
SPIRIT OF STL  MOSUNNY   75  60  59 CALM      29.96S
ST CHARLES     SUNNY     78  59  51 CALM      29.96S

$$
MOZ072>076-082>087-097>100-106>115-301700-
...SOUTH CENTRAL AND SOUTHEAST MISSOURI...

CITY           SKY/WX    TMP DP  RH WIND       PRES   REMARKS
CAPE GIRARDEAU SUNNY     80  55  42 CALM      29.96F
FARMINGTON     SUNNY     79  57  47 CALM      30.00S
POPLAR BLUFF   SUNNY     80  57  45 VRB3      29.95F
WEST PLAINS    SUNNY     79  52  38 S9        30.00S

$$


USA.gov is the U.S. government's official web portal to all federal, state and local government web resources and services.